Change the Weather History Date:

Monday, October 14, 2013

  Actual Average Record
Temperature  
Mean Temperature 47 °F -  
Max Temperature 64 °F 63 °F 80 °F (2000)
Min Temperature 30 °F 40 °F 23 °F (1958)
Degree Days  
Heating Degree Days 18    
Moisture  
Dew Point 35 °F    
Average Humidity 89    
Maximum Humidity 100    
Minimum Humidity 38    
Precipitation  
Precipitation 0.00 in - - ()
Sea Level Pressure  
Sea Level Pressure 30.37 in    
Wind  
Wind Speed 1 mph (SW)    
Max Wind Speed 7 mph    
Max Gust Speed -    
Visibility 5 miles    
Events Fog    
Averages and records for this station are not official NWS values.
T = Trace of Precipitation, MM = Missing Value Source: NWS Daily Summary

Daily Weather History Graph

Daily Weather History Graph

Search for Another Location

Airport or City:

Trip Planner

Search our weather history database for the weather conditions in past years. The results will help you decide how hot, cold, wet, or windy it might be!

Date:

Astronomy

Oct. 14, 2013 Rise Set
Actual Time 6:57 AM EDT 6:04 PM EDT
Civil Twilight 6:28 AM EDT 6:32 PM EDT
Nautical Twilight 5:56 AM EDT 7:05 PM EDT
Astronomical Twilight 5:23 AM EDT 7:37 PM EDT
Moon 3:36 PM EDT (10/14) 2:04 AM EDT (10/14)
Length of Visible Light 12h 03m
Length of Day
11h 07m
Waxing Gibbous, 79% of the Moon is Illuminated
Oct 14
Waxing Gibbous
Oct 18
Full
Oct 26
Last Quarter
Nov 3
New
Nov 10
First Quarter

Hourly Weather History & Observations

Time (EDT) Temp. Windchill Dew Point Humidity Pressure Visibility Wind Dir Wind Speed Gust Speed Precip Events Conditions
12:24 AM 35.6 °F - 35.6 °F 100% 30.40 in 1.5 mi Calm Calm - N/A   Clear
12:33 AM 33.8 °F 30.8 °F 33.8 °F 100% 30.40 in 2.0 mi NW 3.5 mph - N/A   Partly Cloudy
12:40 AM 33.8 °F 30.8 °F 32.0 °F 93% 30.40 in 8.0 mi NW 3.5 mph - N/A   Clear
12:47 AM 33.8 °F 30.8 °F 33.8 °F 100% 30.40 in 10.0 mi WNW 3.5 mph - N/A   Partly Cloudy
12:56 AM 35.1 °F - 35.1 °F 100% 30.44 in 3.0 mi Calm Calm - N/A   Partly Cloudy
1:02 AM 35.6 °F - 35.6 °F 100% 30.40 in 1.8 mi Calm Calm - N/A   Partly Cloudy
1:05 AM 33.8 °F - 33.8 °F 100% 30.40 in 0.8 mi Calm Calm - N/A   Mist
1:18 AM 33.8 °F - 33.8 °F 100% 30.40 in 2.0 mi Calm Calm - N/A   Scattered Clouds
1:32 AM 33.8 °F - 33.8 °F 100% 30.40 in 6.0 mi Calm Calm - N/A   Scattered Clouds
1:47 AM 33.8 °F - 33.8 °F 100% 30.39 in 1.5 mi Calm Calm - N/A   Scattered Clouds
1:49 AM 33.8 °F - 33.8 °F 100% 30.39 in 0.8 mi Calm Calm - N/A   Mist
1:56 AM 33.1 °F - 33.1 °F 100% 30.43 in 0.5 mi Calm Calm - N/A Fog Fog
2:00 AM 32.0 °F - 32.0 °F 100% 30.39 in 1.5 mi Calm Calm - N/A   Scattered Clouds
2:02 AM 32.0 °F - 32.0 °F 100% 30.39 in 4.0 mi Calm Calm - N/A   Scattered Clouds
2:56 AM 32.0 °F - 30.9 °F 96% 30.42 in 10.0 mi Calm Calm - N/A   Partly Cloudy
3:13 AM 32.0 °F - 30.2 °F 93% 30.37 in 10.0 mi Calm Calm - N/A   Mostly Cloudy
3:26 AM 32.0 °F - 30.2 °F 93% 30.37 in 1.5 mi Calm Calm - N/A   Overcast
3:30 AM 32.0 °F - 32.0 °F 100% 30.37 in 0.8 mi Calm Calm - N/A   Overcast
3:40 AM 32.0 °F - 30.2 °F 93% 30.37 in 1.8 mi Calm Calm - N/A   Overcast
3:51 AM 30.2 °F - 30.2 °F 100% 30.37 in 0.5 mi Calm Calm - N/A Fog Light Freezing Fog
3:56 AM 32.0 °F - 32.0 °F 100% 30.41 in 0.5 mi Calm Calm - N/A Fog Fog
4:12 AM 32.0 °F - 32.0 °F 100% 30.37 in 0.5 mi Calm Calm - N/A Fog Fog
4:56 AM 30.9 °F - 30.9 °F 100% 30.41 in 0.5 mi Calm Calm - N/A Fog Light Freezing Fog
5:28 AM 30.2 °F - 30.2 °F 100% 30.37 in 1.2 mi Calm Calm - N/A   Overcast
5:50 AM 30.2 °F - 28.4 °F 93% 30.37 in 3.0 mi Calm Calm - N/A   Overcast
5:56 AM 30.0 °F - 30.0 °F 100% 30.42 in 10.0 mi Calm Calm - N/A   Overcast
6:12 AM 30.2 °F - 30.2 °F 100% 30.37 in 1.5 mi Calm Calm - N/A   Overcast
6:22 AM 30.2 °F - 30.2 °F 100% 30.37 in 0.5 mi Calm Calm - N/A Fog Light Freezing Fog
6:29 AM 32.0 °F - 30.2 °F 93% 30.37 in 0.2 mi Calm Calm - N/A Fog Fog
6:38 AM 30.2 °F - 30.2 °F 100% 30.36 in 0.5 mi Calm Calm - N/A Fog Light Freezing Fog
6:56 AM 32.0 °F - 30.9 °F 96% 30.41 in 0.5 mi Calm Calm - N/A Fog Light Freezing Fog
7:09 AM 30.2 °F - 30.2 °F 100% 30.37 in 1.0 mi Calm Calm - N/A Fog Light Freezing Fog
7:13 AM 30.2 °F - 30.2 °F 100% 30.36 in 4.0 mi Calm Calm - N/A Fog Light Freezing Fog
7:45 AM 30.2 °F 26.7 °F 30.2 °F 100% 30.38 in 0.5 mi WNW 3.5 mph - N/A Fog Light Freezing Fog
7:56 AM 32.0 °F - 32.0 °F 100% 30.43 in 0.8 mi Calm Calm - N/A   Mist
8:03 AM 32.0 °F - 32.0 °F 100% 30.38 in 0.5 mi Calm Calm - N/A Fog Fog
8:26 AM 35.6 °F - 35.6 °F 100% 30.38 in 2.0 mi Calm Calm - N/A   Overcast
8:34 AM 37.4 °F - 37.4 °F 100% 30.38 in 5.0 mi Calm Calm - N/A   Overcast
8:54 AM 39.2 °F - 39.2 °F 100% 30.38 in 4.0 mi Calm Calm - N/A   Scattered Clouds
8:56 AM 39.9 °F - 39.0 °F 97% 30.43 in 4.0 mi Calm Calm - N/A   Scattered Clouds
9:56 AM 48.0 °F - 45.0 °F 89% 30.42 in 10.0 mi Calm Calm - N/A   Clear
10:56 AM 54.0 °F - 44.1 °F 69% 30.40 in 10.0 mi Variable 5.8 mph - N/A   Clear
11:56 AM 57.9 °F - 37.9 °F 47% 30.37 in 10.0 mi South 3.5 mph - N/A   Scattered Clouds
12:56 PM 61.0 °F - 39.0 °F 44% 30.34 in 10.0 mi Calm Calm - N/A   Scattered Clouds
1:56 PM 62.1 °F - 37.9 °F 41% 30.32 in 10.0 mi SSW 3.5 mph - N/A   Clear
2:56 PM 64.0 °F - 37.9 °F 38% 30.30 in 10.0 mi SSW 6.9 mph - N/A   Clear
3:56 PM 63.0 °F - 37.9 °F 40% 30.29 in 10.0 mi SSW 5.8 mph - N/A   Clear
4:56 PM 60.1 °F - 39.9 °F 47% 30.29 in 10.0 mi South 5.8 mph - N/A   Clear
5:56 PM 57.0 °F - 39.9 °F 53% 30.30 in 10.0 mi South 3.5 mph - N/A   Clear
6:56 PM 55.0 °F - 45.0 °F 69% 30.31 in 10.0 mi Calm Calm - N/A   Clear
7:56 PM 50.0 °F - 45.0 °F 83% 30.32 in 10.0 mi Calm Calm - N/A   Scattered Clouds
8:56 PM 53.1 °F - 45.0 °F 74% 30.31 in 10.0 mi Calm Calm - N/A   Overcast
9:56 PM 52.0 °F - 45.0 °F 77% 30.31 in 10.0 mi Calm Calm - N/A   Mostly Cloudy
10:56 PM 51.1 °F - 44.1 °F 77% 30.30 in 10.0 mi Calm Calm - N/A   Partly Cloudy
11:56 PM 48.0 °F - 45.0 °F 89% 30.30 in 10.0 mi Calm Calm - N/A   Scattered Clouds